Weather History for Santa Fe, NM

Change the Weather History Date:

Thursday, December 6, 2012

  Actual Average Record
Temperature  
Mean Temperature 44 °F -  
Max Temperature 57 °F 52 °F 57 °F (2012)
Min Temperature 30 °F 14 °F -2 °F (2011)
Degree Days  
Heating Degree Days 22    
Moisture  
Dew Point 18 °F    
Average Humidity 39    
Maximum Humidity 56    
Minimum Humidity 21    
Precipitation  
Precipitation 0.00 in - - ()
Sea Level Pressure  
Sea Level Pressure 29.89 in    
Wind  
Wind Speed 6 mph (NNW)    
Max Wind Speed 12 mph    
Max Gust Speed 21 mph    
Visibility 10 miles    
Events      
Averages and records for this station are not official NWS values.
T = Trace of Precipitation, MM = Missing Value Source: NWS Daily Summary

Daily Weather History Graph

Daily Weather History Graph

Search for Another Location

Airport:

Trip Planner

Search our weather history database for the weather conditions in past years. The results will help you decide how hot, cold, wet, or windy it might be!

Date:

Astronomy

Dec. 06, 2012 Rise Set
Actual Time 7:00 AM MST 4:50 PM MST
Civil Twilight 6:32 AM MST 5:19 PM MST
Nautical Twilight 6:00 AM MST 5:50 PM MST
Astronomical Twilight 5:29 AM MST 6:21 PM MST
Moon No Moon Rise 12:06 PM MST (12/6)
Length of Visible Light 10h 47m
Length of Day
9h 50m
Waning Gibbous, 48% of the Moon is Illuminated
Dec 6
Waning Gibbous
Dec 13
New
Dec 19
First Quarter
Dec 28
Full
Jan 4
Last Quarter

Hourly Weather History & Observations

Time (MST) Temp. Windchill Dew Point Humidity Pressure Visibility Wind Dir Wind Speed Gust Speed Precip Events Conditions
12:53 AM 43.0 °F 39.5 °F 18.0 °F 37% 29.90 in 10.0 mi NW 5.8 mph - N/A   Clear
1:53 AM 36.0 °F 30.3 °F 17.1 °F 46% 29.91 in 10.0 mi North 6.9 mph - N/A   Clear
2:53 AM 35.1 °F 31.0 °F 17.1 °F 48% 29.92 in 10.0 mi North 4.6 mph - N/A   Clear
3:53 AM 30.9 °F 23.5 °F 16.0 °F 54% 29.92 in 10.0 mi North 8.1 mph - N/A   Clear
4:53 AM 34.0 °F 26.0 °F 17.1 °F 50% 29.92 in 10.0 mi North 10.4 mph - N/A   Clear
5:53 AM 33.1 °F 26.9 °F 17.1 °F 52% 29.95 in 10.0 mi North 6.9 mph - N/A   Clear
6:53 AM 30.0 °F 21.7 °F 16.0 °F 56% 29.98 in 10.0 mi NNE 9.2 mph - N/A   Clear
7:53 AM 33.1 °F 25.5 °F 17.1 °F 52% 29.98 in 10.0 mi North 9.2 mph - N/A   Clear
8:53 AM 42.1 °F 38.4 °F 18.0 °F 38% 29.94 in 10.0 mi NNE 5.8 mph - N/A   Clear
9:53 AM 46.9 °F - 18.0 °F 32% 29.94 in 10.0 mi Calm Calm - N/A   Clear
10:53 AM 51.1 °F - 18.0 °F 27% 29.90 in 10.0 mi SW 4.6 mph - N/A   Clear
11:53 AM 52.0 °F - 17.1 °F 25% 29.86 in 10.0 mi SW 9.2 mph - N/A   Clear
12:53 PM 55.0 °F - 17.1 °F 23% 29.82 in 10.0 mi SW 11.5 mph - N/A   Clear
1:53 PM 57.9 °F - 18.0 °F 21% 29.81 in 10.0 mi SW 11.5 mph 20.7 mph N/A   Clear
2:53 PM 57.9 °F - 19.0 °F 22% 29.80 in 10.0 mi WSW 11.5 mph - N/A   Clear
3:53 PM 55.0 °F - 19.0 °F 24% 29.83 in 10.0 mi SW 10.4 mph - N/A   Clear
4:53 PM 50.0 °F - 19.0 °F 29% 29.84 in 10.0 mi South 3.5 mph - N/A   Clear
5:53 PM 48.0 °F - 19.0 °F 32% 29.85 in 10.0 mi East 4.6 mph - N/A   Clear
6:53 PM 43.0 °F - 18.0 °F 37% 29.89 in 10.0 mi Calm Calm - N/A   Clear
7:53 PM 37.9 °F 33.5 °F 18.0 °F 45% 29.91 in 10.0 mi NNW 5.8 mph - N/A   Clear
8:53 PM 37.9 °F 35.5 °F 18.0 °F 45% 29.88 in 10.0 mi North 3.5 mph - N/A   Overcast
9:53 PM 37.9 °F 35.5 °F 18.0 °F 45% 29.86 in 10.0 mi North 3.5 mph - N/A   Mostly Cloudy
10:53 PM 41.0 °F 39.0 °F 19.9 °F 43% 29.83 in 10.0 mi North 3.5 mph - N/A   Overcast
11:53 PM 41.0 °F - 19.9 °F 43% 29.82 in 10.0 mi Calm Calm - N/A   Overcast